Location: Le Petit-Vavre
(46.5081°N, 1.5239°E)
Time: 20:58:28
(UTC+00:00)

ERS-2 - Pass Details

Date: 03 March 2021
Orbit: 492 x 496 km, 98.6° (Epoch: 20 April)

Event Time Altitude Azimuth Distance (km) Brightness Sun altitude
Rises 18:21:57 0° 21° (NNE) 2,595 5.5 -7.5°
Reaches altitude 10° 18:24:07 10° 29° (NNE) 1,707 4.5 -7.9°
Maximum altitude 18:27:36 40° 100° (E) 751 2.5 -8.5°
Drops below altitude 10° 18:31:02 10° 171° (S) 1,694 4.7 -9.1°
Sets 18:33:12 0° 179° (S) 2,572 5.7 -9.4°
